Simultaneous Nadir Overpasses (SNOs) Predictions

Prediction of SNOs between AQUA and METOP-A Satellite Orbit:

Table of predicted SNOs for the next 14.0 days since TLE Epoch: 10/5/2013
Index Date (AQUA) Time (AQUA) Lat,Lon (AQUA) SZA (AQUA ) Date (METOP-A) Time (METOP-A) Lat,Lon (METOP-A) SZA (METOP-A ) Distance(km) Time Diff (sec)
1 10/06/2013 16:14:18 73.82, -69.34 79.11 10/06/2013 16:13:12 73.83, -69.25 79.12 3.03 66
2 10/06/2013 17:03:45 -73.90, 98.14 100.81 10/06/2013 17:03:52 -73.90, 98.25 100.80 3.70 7
3 10/06/2013 17:53:17 74.13, -94.76 79.45 10/06/2013 17:54:28 74.11, -93.91 79.41 25.94 71
4 10/09/2013 11:48:31 73.80, -2.84 80.15 10/09/2013 11:47:36 73.79, -2.95 80.14 3.66 55
5 10/09/2013 12:37:58 -73.87, 164.64 99.77 10/09/2013 12:38:16 -73.87, 164.56 99.77 2.49 18
6 10/09/2013 13:27:37 74.47, -29.11 80.87 10/09/2013 13:28:44 74.46, -26.62 80.83 74.18 67
7 10/12/2013 07:22:45 73.85, 63.49 81.26 10/12/2013 07:21:58 73.84, 63.57 81.25 3.01 47
8 10/12/2013 08:12:11 -73.87,-128.91 98.71 10/12/2013 08:12:39 -73.87,-129.02 98.71 3.46 28
9 10/15/2013 02:56:56 73.82, 130.00 82.28 10/15/2013 02:56:20 73.83, 129.97 82.30 1.56 36
10 10/15/2013 03:46:23 -73.89, -62.50 97.64 10/15/2013 03:47:01 -73.87, -62.61 97.66 3.67 38
11 10/17/2013 22:31:08 73.82,-163.54 83.31 10/17/2013 22:30:43 73.82,-163.64 83.32 3.39 25
12 10/17/2013 23:20:36 -73.93, 3.85 96.56 10/17/2013 23:21:23 -73.92, 3.91 96.58 2.56 47




NCC Satellite Simultaneous Nadir Overpasses (SNOs) Prediction Service
